Ceres, California, United States (95307)
Lat: 37.59N, Lon: 120.96W
Wx Zone: CAZ019
Local Info
Past Weather Observations for Today

NOTE: This archive is for the closest National Weather Service station to Ceres. Information may differ from the station used for current weather conditions.

Click here for Long-term Archive

Time Weather Temperature Dewpoint Humidity Pressure Winds Precip Visibility
09:37
Clear
Hazy
50°F / 10°C 45°F / 7°C 82% 30.04 in
(1017 mb)
Calm - 3SM
08:53
Clear
Fog And Mist
46°F / 8°C 45°F / 7°C 93% 30.04 in
(1017 mb)
Calm - 2SM
08:13
Partly Cloudy
Fog And Mist
43°F / 6°C 39°F / 4°C 87% 30.04 in
(1017 mb)
Calm - 2SM
07:56
Mostly Cloudy
Fog And Mist
39°F / 4°C 37°F / 3°C 93% 30.01 in
(1016 mb)
Calm - 1 1/2SM
07:53
Obscured
Fog And Mist
39°F / 4°C 37°F / 3°C 93% 30.01 in
(1016 mb)
Calm - 3/4SM
07:37
Mostly Cloudy
Fog And Mist
37°F / 3°C 36°F / 2°C 93% 30.01 in
(1016 mb)
Calm - 1 1/2SM
07:19
Obscured
Fog
37°F / 3°C 36°F / 2°C 93% 30.01 in
(1016 mb)
Calm - 1/2SM
07:02
Obscured
Fog
37°F / 3°C 37°F / 3°C 100% 30.01 in
(1016 mb)
Calm - 1/4SM
06:53
Obscured
Fog
37°F / 3°C 36°F / 2°C 93% 30.01 in
(1016 mb)
Calm - 1/2SM
06:51
Obscured
Fog And Mist
37°F / 3°C 36°F / 2°C 93% 30.01 in
(1016 mb)
Calm - 3/4SM
06:38
Clear
Fog And Mist
37°F / 3°C 37°F / 3°C 100% 30.01 in
(1016 mb)
Calm - 1 1/4SM
06:21
Clear
Fog And Mist
39°F / 4°C 36°F / 2°C 87% 30.01 in
(1016 mb)
Calm - 3/4SM
05:53
Clear
Fog And Mist
41°F / 5°C 39°F / 4°C 93% 30.01 in
(1016 mb)
Calm - 2 1/2SM
05:36
Clear
Fog And Mist
39°F / 4°C 37°F / 3°C 93% 30.01 in
(1016 mb)
ESE 3.5 mph
(ESE 6 kph)
- 1SM
05:26
Obscured
Fog And Mist
41°F / 5°C 39°F / 4°C 93% 30.01 in
(1016 mb)
SE 4.6 mph
(SE 7 kph)
- 1SM
05:19
Partly Cloudy
Fog And Mist
41°F / 5°C 39°F / 4°C 93% 30.01 in
(1016 mb)
SE 4.6 mph
(SE 7 kph)
- 1 1/4SM
05:05
Obscured
Fog
39°F / 4°C 37°F / 3°C 93% 30.01 in
(1016 mb)
SE 4.6 mph
(SE 7 kph)
- 1/2SM
04:53
Clear
Fog And Mist
39°F / 4°C 37°F / 3°C 93% 30.01 in
(1016 mb)
SE 5.8 mph
(SE 9 kph)
- 1 1/4SM
03:53
Clear
Fog And Mist
41°F / 5°C 39°F / 4°C 93% 30.01 in
(1016 mb)
ESE 4.6 mph
(ESE 7 kph)
- 1 1/4SM
03:30
Clear
Fog And Mist
41°F / 5°C 39°F / 4°C 93% 30.04 in
(1017 mb)
SE 5.8 mph
(SE 9 kph)
- 1 1/4SM
03:19
Clear
Fog And Mist
39°F / 4°C 37°F / 3°C 93% 30.04 in
(1017 mb)
ESE 4.6 mph
(ESE 7 kph)
- 2SM
02:53
Clear
Fog And Mist
41°F / 5°C 39°F / 4°C 93% 30.04 in
(1017 mb)
SE 4.6 mph
(SE 7 kph)
- 1 1/2SM
01:53
Clear
Fog And Mist
45°F / 7°C 43°F / 6°C 93% 30.06 in
(1018 mb)
SE 4.6 mph
(SE 7 kph)
- 1 3/4SM
01:09
Clear
Fog And Mist
43°F / 6°C 41°F / 5°C 93% 30.06 in
(1018 mb)
ESE 4.6 mph
(ESE 7 kph)
- 1 1/2SM
01:01
Clear
Fog And Mist
45°F / 7°C 41°F / 5°C 87% 30.06 in
(1018 mb)
SE 5.8 mph
(SE 9 kph)
- 2SM
00:53
Clear
Fog And Mist
45°F / 7°C 41°F / 5°C 87% 30.06 in
(1018 mb)
ESE 4.6 mph
(ESE 7 kph)
- 1 3/4SM
00:18
Clear
Fog And Mist
45°F / 7°C 43°F / 6°C 93% 30.06 in
(1018 mb)
Calm - 1 1/2SM
00:09
Clear
Fog And Mist
45°F / 7°C 41°F / 5°C 87% 30.06 in
(1018 mb)
ESE 3.5 mph
(ESE 6 kph)
- 2SM
Time Weather Temperature Dewpoint Humidity Pressure Winds Precip Visibility


Weather for websites

WeatherForYou.com, LLC is not responsible for any damages or problems caused by this service. Current weather conditions are obtained from the closest station including government and personal stations which may have varying degrees of accuracy. Weather forecasts are derived from the NOAA NDFD. Like all things, this site belongs to Jesus Christ... He just trusts me to maintain it. If you have any questions or comments email webmaster@weatherforyou.com

Copyright © 2014, WeatherForYou.com LLC. All rights reserved.